Location: Le Rocchette
(44.3500°N, 7.8333°E)
Time: 18:17:08
(UTC+00:00)

PSLV R/B - Pass Details

Date: 17 November 2019
Orbit: 504 x 579 km, 97.8° (Epoch: 07 December)

Event Time Altitude Azimuth Distance (km) Brightness Sun altitude
Rises 04:40:57 0° 11° (N) 2,673 7.4 -18.8°
Reaches altitude 10° 04:43:03 10° 9° (N) 1,791 6.4 -18.4°
Maximum altitude 04:46:54 75° 285° (WNW) 566 3.6 -17.8°
Drops below altitude 10° 04:50:49 10° 200° (SSW) 1,820 6.4 -17.1°
Sets 04:52:58 0° 199° (SSW) 2,722 7.3 -16.7°
